| time (UTC) | temp C | wind direction | speed KPH | gust KPH | rain 1hr cm | rain 24hr cm | rain mn cm | humidity % | barometer mb |
| 20260903062756 | 18 | 223 | 0.0 | 4.8 | 0.00 | 0.00 | 0.00 | 72 | 1015.6 |
| 20260903062253 | 18 | 223 | 0.0 | 4.8 | 0.00 | 0.00 | 0.00 | 72 | 1015.7 |
| 20260903061753 | 18 | 223 | 1.6 | 3.2 | 0.00 | 0.00 | 0.00 | 73 | 1015.7 |
| 20260903061246 | 18 | 223 | 1.6 | 3.2 | 0.00 | 0.00 | 0.00 | 74 | 1015.7 |
| 20260903060747 | 18 | 223 | 0.0 | 1.6 | 0.00 | 0.00 | 0.00 | 72 | 1015.7 |
| 20260903060246 | 18 | 223 | 0.0 | 1.6 | 0.00 | 0.00 | 0.00 | 73 | 1015.7 |
| 20260903055746 | 19 | 223 | 0.0 | 3.2 | 0.00 | 0.00 | 0.00 | 73 | 1015.7 |
| 20260903055245 | 19 | 223 | 0.0 | 3.2 | 0.00 | 0.00 | 0.00 | 73 | 1015.7 |
| 20260903054745 | 19 | 223 | 0.0 | 1.6 | 0.00 | 0.00 | 0.00 | 72 | 1015.7 |
| 20260903054245 | 19 | 223 | 1.6 | 8.0 | 0.00 | 0.00 | 0.00 | 73 | 1015.7 |
| 20260903054014 | 19 | 223 | 1.6 | 8.0 | 0.00 | 0.00 | 0.00 | 73 | 1015.6 |
| 20260903053240 | 19 | 223 | 0.0 | 3.2 | 0.00 | 0.00 | 0.00 | 72 | 1015.7 |
| 20260903052739 | 19 | 223 | 1.6 | 6.4 | 0.00 | 0.00 | 0.00 | 72 | 1015.7 |
| 20260903052507 | 20 | 223 | 3.2 | 6.4 | 0.00 | 0.00 | 0.00 | 73 | 1015.6 |
| 20260903051736 | 20 | 223 | 4.8 | 9.7 | 0.00 | 0.00 | 0.00 | 72 | 1015.6 |
| 20260903051510 | 20 | 223 | 4.8 | 9.7 | 0.00 | 0.00 | 0.00 | 72 | 1015.5 |
| 20260903051035 | 20 | 223 | 6.4 | 12.9 | 0.00 | 0.00 | 0.00 | 71 | 1015.4 |
| 20260903050516 | 20 | 223 | 6.4 | 14.5 | 0.00 | 0.00 | 0.00 | 71 | 1015.3 |
| 20260903050426 | 20 | 223 | 8.0 | 14.5 | 0.00 | 0.00 | 0.00 | 71 | 1015.4 |
| 20260903050123 | 20 | 217 | 8.0 | 16.1 | 0.00 | 0.00 | 0.00 | 71 | 1015.3 |
| 20260903045845 | 20 | 223 | 8.0 | 14.5 | 0.00 | 0.00 | 0.00 | 71 | 1015.3 |
| 20260903045748 | 20 | 219 | 8.0 | 14.5 | 0.00 | 0.00 | 0.00 | 71 | 1015.4 |
| 20260903043507 | 20 | 217 | 8.0 | 17.7 | 0.00 | 0.00 | 0.00 | 71 | 1015.3 |
| 20260903043247 | 20 | 217 | 8.0 | 17.7 | 0.00 | 0.00 | 0.00 | 71 | 1015.3 |
| 20260903043008 | 20 | 219 | 8.0 | 17.7 | 0.00 | 0.00 | 0.00 | 70 | 1015.2 |
| 20260903042749 | 20 | 219 | 8.0 | 17.7 | 0.00 | 0.00 | 0.00 | 70 | 1015.2 |
| 20260903042249 | 21 | 225 | 8.0 | 16.1 | 0.00 | 0.00 | 0.00 | 70 | 1015.1 |
| 20260903041735 | 21 | 218 | 8.0 | 16.1 | 0.00 | 0.00 | 0.00 | 70 | 1015.1 |
| 20260903041507 | 21 | 228 | 9.7 | 16.1 | 0.00 | 0.00 | 0.00 | 69 | 1015.1 |
| 20260903040733 | 21 | 227 | 9.7 | 14.5 | 0.00 | 0.00 | 0.00 | 69 | 1015.1 |
| 20260903040708 | 21 | 218 | 6.4 | 12.9 | 0.00 | 0.00 | 0.00 | 66 | 1014.8 |
| 20260903040621 | 21 | 215 | 8.0 | 14.5 | 0.00 | 0.00 | 0.00 | 68 | 1015.0 |
| 20260903040512 | 21 | 219 | 8.0 | 14.5 | 0.00 | 0.00 | 0.00 | 68 | 1014.9 |
| 20260903040417 | 21 | 216 | 8.0 | 14.5 | 0.00 | 0.00 | 0.00 | 67 | 1014.9 |
| 20260903034500 | 21 | 217 | 8.0 | 16.1 | 0.00 | 0.00 | 0.00 | 65 | 1014.7 |
| 20260903033729 | 22 | 218 | 9.7 | 16.1 | 0.00 | 0.00 | 0.00 | 65 | 1014.7 |
| 20260903033500 | 22 | 222 | 9.7 | 16.1 | 0.00 | 0.00 | 0.00 | 64 | 1014.5 |
| 20260903032955 | 22 | 221 | 9.7 | 17.7 | 0.00 | 0.00 | 0.00 | 64 | 1014.4 |
| 20260903032225 | 22 | 222 | 8.0 | 17.7 | 0.00 | 0.00 | 0.00 | 63 | 1014.4 |
| 20260903031725 | 22 | 223 | 9.7 | 14.5 | 0.00 | 0.00 | 0.00 | 62 | 1014.4 |
| 20260903031226 | 22 | 223 | 9.7 | 16.1 | 0.00 | 0.00 | 0.00 | 62 | 1014.3 |
| 20260903030721 | 22 | 219 | 11.3 | 19.3 | 0.00 | 0.00 | 0.00 | 61 | 1014.3 |
| 20260903030222 | 22 | 223 | 11.3 | 19.3 | 0.00 | 0.00 | 0.00 | 60 | 1014.3 |
| 20260903025721 | 23 | 218 | 11.3 | 19.3 | 0.00 | 0.00 | 0.00 | 59 | 1014.3 |
| 20260903025452 | 23 | 225 | 11.3 | 19.3 | 0.00 | 0.00 | 0.00 | 58 | 1014.2 |
| 20260903024717 | 23 | 212 | 12.9 | 19.3 | 0.00 | 0.00 | 0.00 | 56 | 1014.2 |
| 20260903024217 | 23 | 224 | 12.9 | 22.5 | 0.00 | 0.00 | 0.00 | 55 | 1014.1 |
| 20260903023948 | 23 | 225 | 12.9 | 22.5 | 0.00 | 0.00 | 0.00 | 54 | 1014.0 |
| 20260903023759 | 23 | 225 | 12.9 | 22.5 | 0.00 | 0.00 | 0.00 | 54 | 1014.0 |
| 20260903023217 | 24 | 235 | 14.5 | 22.5 | 0.00 | 0.00 | 0.00 | 53 | 1014.0 |
| 20260903022943 | 24 | 224 | 14.5 | 24.1 | 0.00 | 0.00 | 0.00 | 52 | 1013.9 |
| 20260903022213 | 24 | 213 | 12.9 | 24.1 | 0.00 | 0.00 | 0.00 | 50 | 1013.9 |
| 20260903021944 | 25 | 227 | 12.9 | 22.5 | 0.00 | 0.00 | 0.00 | 48 | 1013.9 |
| 20260903021213 | 25 | 230 | 14.5 | 22.5 | 0.00 | 0.00 | 0.00 | 47 | 1013.9 |
| 20260903020712 | 25 | 225 | 12.9 | 20.9 | 0.00 | 0.00 | 0.00 | 45 | 1013.9 |
| 20260903020444 | 25 | 238 | 11.3 | 19.3 | 0.00 | 0.00 | 0.00 | 43 | 1013.9 |
| 20260903015712 | 25 | 215 | 12.9 | 24.1 | 0.00 | 0.00 | 0.00 | 42 | 1013.8 |
| 20260903015212 | 25 | 232 | 14.5 | 24.1 | 0.00 | 0.00 | 0.00 | 41 | 1013.8 |
| 20260903014712 | 26 | 238 | 14.5 | 25.7 | 0.00 | 0.00 | 0.00 | 39 | 1013.8 |
| 20260903014212 | 26 | 214 | 14.5 | 25.7 | 0.00 | 0.00 | 0.00 | 39 | 1013.8 |
| 20260903013713 | 26 | 223 | 12.9 | 22.5 | 0.00 | 0.00 | 0.00 | 38 | 1013.7 |
| 20260903013213 | 26 | 219 | 11.3 | 19.3 | 0.00 | 0.00 | 0.00 | 38 | 1013.7 |
| 20260903012940 | 26 | 226 | 11.3 | 19.3 | 0.00 | 0.00 | 0.00 | 37 | 1013.8 |
| 20260903012209 | 26 | 220 | 11.3 | 24.1 | 0.00 | 0.00 | 0.00 | 38 | 1013.7 |
| 20260903011709 | 27 | 201 | 12.9 | 24.1 | 0.00 | 0.00 | 0.00 | 39 | 1013.7 |
| 20260903011210 | 27 | 217 | 14.5 | 25.7 | 0.00 | 0.00 | 0.00 | 40 | 1013.7 |
| 20260903010935 | 27 | 221 | 14.5 | 25.7 | 0.00 | 0.00 | 0.00 | 40 | 1013.7 |
| 20260903010205 | 27 | 217 | 16.1 | 24.1 | 0.00 | 0.00 | 0.00 | 41 | 1013.7 |
| 20260903005936 | 27 | 224 | 12.9 | 24.1 | 0.00 | 0.00 | 0.00 | 40 | 1013.6 |
| 20260903004701 | 28 | 232 | 12.9 | 25.7 | 0.00 | 0.00 | 0.00 | 41 | 1013.6 |
| 20260903004201 | 28 | 219 | 14.5 | 22.5 | 0.00 | 0.00 | 0.00 | 41 | 1013.6 |
| 20260903003932 | 28 | 224 | 12.9 | 25.7 | 0.00 | 0.00 | 0.00 | 41 | 1013.5 |
| 20260903003202 | 28 | 214 | 11.3 | 25.7 | 0.00 | 0.00 | 0.00 | 40 | 1013.6 |
| 20260903002656 | 28 | 236 | 12.9 | 20.9 | 0.00 | 0.00 | 0.00 | 40 | 1013.5 |
| 20260903002158 | 28 | 235 | 14.5 | 25.7 | 0.00 | 0.00 | 0.00 | 39 | 1013.6 |
| 20260903001710 | 28 | 221 | 16.1 | 25.7 | 0.00 | 0.00 | 0.00 | 39 | 1013.5 |
| 20260903001211 | 28 | 227 | 14.5 | 22.5 | 0.00 | 0.00 | 0.00 | 38 | 1013.5 |
| 20260903000652 | 28 | 216 | 14.5 | 25.7 | 0.00 | 0.00 | 0.00 | 38 | 1013.6 |
| 20260903000154 | 29 | 242 | 12.9 | 25.7 | 0.00 | 0.00 | 0.00 | 37 | 1013.6 |
| 20260902235654 | 29 | 222 | 11.3 | 22.5 | 0.00 | 0.00 | 0.00 | 40 | 1013.6 |
| 20260902234649 | 30 | 213 | 11.3 | 24.1 | 0.00 | 0.00 | 0.00 | 39 | 1013.7 |
| 20260902234420 | 30 | 219 | 11.3 | 22.5 | 0.00 | 0.00 | 0.00 | 39 | 1013.7 |
| 20260902233718 | 30 | 253 | 12.9 | 22.5 | 0.00 | 0.00 | 0.00 | 40 | 1013.7 |
| 20260902233150 | 30 | 220 | 12.9 | 19.3 | 0.00 | 0.00 | 0.00 | 38 | 1013.7 |
| 20260902232916 | 30 | 266 | 11.3 | 17.7 | 0.00 | 0.00 | 0.00 | 38 | 1013.7 |
| 20260902232416 | 30 | 229 | 9.7 | 24.1 | 0.00 | 0.00 | 0.00 | 37 | 1013.7 |
| 20260902231917 | 30 | 202 | 11.3 | 24.1 | 0.00 | 0.00 | 0.00 | 36 | 1013.8 |
| 20260902231145 | 30 | 221 | 11.3 | 20.9 | 0.00 | 0.00 | 0.00 | 37 | 1013.8 |
| 20260902230641 | 30 | 221 | 12.9 | 24.1 | 0.00 | 0.00 | 0.00 | 36 | 1013.8 |
| 20260902230412 | 30 | 215 | 12.9 | 24.1 | 0.00 | 0.00 | 0.00 | 36 | 1013.9 |
| 20260902225641 | 31 | 221 | 11.3 | 24.1 | 0.00 | 0.00 | 0.00 | 33 | 1013.9 |
| 20260902225141 | 31 | 218 | 11.3 | 24.1 | 0.00 | 0.00 | 0.00 | 32 | 1013.9 |
| 20260902224138 | 31 | 201 | 9.7 | 19.3 | 0.00 | 0.00 | 0.00 | 30 | 1014.0 |
| 20260902223638 | 31 | 217 | 9.7 | 20.9 | 0.00 | 0.00 | 0.00 | 29 | 1014.0 |
| 20260902223408 | 31 | 225 | 11.3 | 22.5 | 0.00 | 0.00 | 0.00 | 29 | 1014.1 |
| 20260902222632 | 31 | 221 | 11.3 | 22.5 | 0.00 | 0.00 | 0.00 | 30 | 1014.2 |
| 20260902222133 | 31 | 223 | 11.3 | 20.9 | 0.00 | 0.00 | 0.00 | 27 | 1014.3 |
| 20260902221633 | 31 | 217 | 9.7 | 20.9 | 0.00 | 0.00 | 0.00 | 29 | 1014.3 |
| 20260902221133 | 31 | 219 | 11.3 | 19.3 | 0.00 | 0.00 | 0.00 | 30 | 1014.4 |
| 20260902220628 | 31 | 215 | 11.3 | 22.5 | 0.00 | 0.00 | 0.00 | 29 | 1014.4 |
| 20260902220129 | 31 | 202 | 11.3 | 22.5 | 0.00 | 0.00 | 0.00 | 28 | 1014.5 |
| 20260902215901 | 31 | 248 | 9.7 | 20.9 | 0.00 | 0.00 | 0.00 | 28 | 1014.5 |
| 20260902215635 | 31 | 248 | 9.7 | 20.9 | 0.00 | 0.00 | 0.00 | 28 | 1014.5 |
| 20260902215147 | 30 | 224 | 9.7 | 20.9 | 0.00 | 0.00 | 0.00 | 28 | 1014.5 |
| 20260902214625 | 31 | 226 | 9.7 | 20.9 | 0.00 | 0.00 | 0.00 | 28 | 1014.6 |
| 20260902214125 | 31 | 209 | 9.7 | 17.7 | 0.00 | 0.00 | 0.00 | 29 | 1014.6 |
| 20260902213625 | 31 | 220 | 9.7 | 17.7 | 0.00 | 0.00 | 0.00 | 28 | 1014.6 |
| 20260902213125 | 31 | 215 | 8.0 | 22.5 | 0.00 | 0.00 | 0.00 | 29 | 1014.6 |
| 20260902212620 | 31 | 229 | 8.0 | 22.5 | 0.00 | 0.00 | 0.00 | 29 | 1014.7 |
| 20260902212121 | 31 | 229 | 9.7 | 19.3 | 0.00 | 0.00 | 0.00 | 30 | 1014.7 |
| 20260902211852 | 30 | 201 | 9.7 | 17.7 | 0.00 | 0.00 | 0.00 | 29 | 1014.8 |
| 20260902211122 | 30 | 223 | 6.4 | 17.7 | 0.00 | 0.00 | 0.00 | 31 | 1014.9 |
| 20260902210618 | 30 | 225 | 8.0 | 17.7 | 0.00 | 0.00 | 0.00 | 31 | 1014.9 |
| 20260902210117 | 30 | 237 | 11.3 | 20.9 | 0.00 | 0.00 | 0.00 | 33 | 1015.0 |
| 20260902205848 | 30 | 221 | 9.7 | 20.9 | 0.00 | 0.00 | 0.00 | 33 | 1015.1 |
| 20260902205118 | 30 | 227 | 8.0 | 17.7 | 0.00 | 0.00 | 0.00 | 33 | 1015.2 |
| 20260902204612 | 30 | 238 | 8.0 | 16.1 | 0.00 | 0.00 | 0.00 | 35 | 1015.2 |
| 20260902203613 | 30 | 257 | 8.0 | 16.1 | 0.00 | 0.00 | 0.00 | 34 | 1015.3 |
| 20260902203114 | 30 | 221 | 8.0 | 16.1 | 0.00 | 0.00 | 0.00 | 34 | 1015.2 |
| 20260902202839 | 30 | 202 | 6.4 | 16.1 | 0.00 | 0.00 | 0.00 | 35 | 1015.3 |
| 20260902202109 | 30 | 223 | 8.0 | 17.7 | 0.00 | 0.00 | 0.00 | 36 | 1015.3 |
| 20260902201609 | 30 | 254 | 8.0 | 17.7 | 0.00 | 0.00 | 0.00 | 37 | 1015.4 |
| 20260902201109 | 30 | 236 | 4.8 | 12.9 | 0.00 | 0.00 | 0.00 | 37 | 1015.5 |
| 20260902200605 | 30 | 236 | 6.4 | 12.9 | 0.00 | 0.00 | 0.00 | 37 | 1015.6 |
| 20260902200106 | 30 | 229 | 6.4 | 14.5 | 0.00 | 0.00 | 0.00 | 37 | 1015.6 |
| 20260902195606 | 29 | 213 | 8.0 | 16.1 | 0.00 | 0.00 | 0.00 | 33 | 1015.7 |
| 20260902195106 | 28 | 223 | 6.4 | 17.7 | 0.00 | 0.00 | 0.00 | 34 | 1015.7 |
| 20260902194600 | 28 | 224 | 8.0 | 17.7 | 0.00 | 0.00 | 0.00 | 37 | 1015.8 |
| 20260902194101 | 28 | 220 | 8.0 | 14.5 | 0.00 | 0.00 | 0.00 | 36 | 1015.8 |
| 20260902193601 | 28 | 220 | 8.0 | 14.5 | 0.00 | 0.00 | 0.00 | 35 | 1015.9 |
| 20260902193101 | 28 | 255 | 8.0 | 16.1 | 0.00 | 0.00 | 0.00 | 36 | 1015.9 |
| 20260902192556 | 28 | 259 | 8.0 | 19.3 | 0.00 | 0.00 | 0.00 | 38 | 1016.0 |
| 20260902192057 | 28 | 257 | 8.0 | 19.3 | 0.00 | 0.00 | 0.00 | 36 | 1016.1 |
| 20260902191557 | 28 | 221 | 6.4 | 16.1 | 0.00 | 0.00 | 0.00 | 38 | 1016.2 |
| 20260902191057 | 27 | 239 | 6.4 | 11.3 | 0.00 | 0.00 | 0.00 | 39 | 1016.2 |
| 20260902190553 | 27 | 221 | 8.0 | 16.1 | 0.00 | 0.00 | 0.00 | 37 | 1016.3 |
| 20260902190106 | 27 | 221 | 9.7 | 17.7 | 0.00 | 0.00 | 0.00 | 38 | 1016.3 |
| 20260902185053 | 28 | 237 | 4.8 | 14.5 | 0.00 | 0.00 | 0.00 | 39 | 1016.3 |
| 20260902184552 | 27 | 241 | 4.8 | 11.3 | 0.00 | 0.00 | 0.00 | 39 | 1016.3 |
| 20260902184049 | 27 | 248 | 6.4 | 11.3 | 0.00 | 0.00 | 0.00 | 40 | 1016.4 |
| 20260902183820 | 27 | 248 | 6.4 | 11.3 | 0.00 | 0.00 | 0.00 | 40 | 1016.5 |
| 20260902183050 | 27 | 244 | 4.8 | 11.3 | 0.00 | 0.00 | 0.00 | 39 | 1016.6 |
| 20260902182815 | 27 | 240 | 4.8 | 12.9 | 0.00 | 0.00 | 0.00 | 41 | 1016.8 |
| 20260902182045 | 26 | 240 | 4.8 | 12.9 | 0.00 | 0.00 | 0.00 | 43 | 1016.6 |
| 20260902181545 | 26 | 234 | 4.8 | 11.3 | 0.00 | 0.00 | 0.00 | 42 | 1016.6 |
| 20260902181046 | 26 | 234 | 4.8 | 11.3 | 0.00 | 0.00 | 0.00 | 43 | 1016.8 |
| 20260902180812 | 25 | 236 | 4.8 | 9.7 | 0.00 | 0.00 | 0.00 | 44 | 1016.8 |
| 20260902180042 | 25 | 235 | 4.8 | 11.3 | 0.00 | 0.00 | 0.00 | 43 | 1016.8 |
| 20260902175541 | 25 | 235 | 4.8 | 11.3 | 0.00 | 0.00 | 0.00 | 46 | 1016.9 |
| 20260902174537 | 25 | 227 | 3.2 | 9.7 | 0.00 | 0.00 | 0.00 | 49 | 1016.9 |
| 20260902174037 | 25 | 227 | 3.2 | 11.3 | 0.00 | 0.00 | 0.00 | 50 | 1016.8 |
| 20260902173540 | 25 | 227 | 3.2 | 11.3 | 0.00 | 0.00 | 0.00 | 51 | 1016.9 |
| 20260902173308 | 25 | 227 | 3.2 | 8.0 | 0.00 | 0.00 | 0.00 | 51 | 1016.9 |
| 20260902172534 | 25 | 227 | 3.2 | 8.0 | 0.00 | 0.00 | 0.00 | 53 | 1016.9 |
| 20260902172308 | 24 | 226 | 1.6 | 8.0 | 0.00 | 0.00 | 0.00 | 53 | 1016.9 |
| 20260902171533 | 23 | 226 | 3.2 | 8.0 | 0.00 | 0.00 | 0.00 | 55 | 1016.9 |
| 20260902171033 | 23 | 226 | 4.8 | 8.0 | 0.00 | 0.00 | 0.00 | 55 | 1016.9 |
| 20260902170759 | 23 | 226 | 3.2 | 8.0 | 0.00 | 0.00 | 0.00 | 56 | 1016.8 |
| 20260902170544 | 23 | 226 | 3.2 | 8.0 | 0.00 | 0.00 | 0.00 | 56 | 1016.8 |
| 20260902170030 | 23 | 226 | 3.2 | 6.4 | 0.00 | 0.00 | 0.00 | 59 | 1016.8 |
| 20260902165529 | 22 | 227 | 3.2 | 8.0 | 0.00 | 0.00 | 0.00 | 61 | 1016.9 |
| 20260902165300 | 22 | 227 | 4.8 | 8.0 | 0.00 | 0.00 | 0.00 | 61 | 1016.8 |
| 20260902164524 | 22 | 227 | 3.2 | 9.7 | 0.00 | 0.00 | 0.00 | 63 | 1016.8 |
| 20260902164028 | 22 | 227 | 1.6 | 9.7 | 0.00 | 0.00 | 0.00 | 64 | 1016.8 |
| 20260902163757 | 21 | 227 | 3.2 | 6.4 | 0.00 | 0.00 | 0.00 | 67 | 1016.8 |
| 20260902163026 | 21 | 227 | 3.2 | 8.0 | 0.00 | 0.00 | 0.00 | 68 | 1016.8 |
| 20260902162753 | 21 | 227 | 3.2 | 8.0 | 0.00 | 0.00 | 0.00 | 68 | 1016.8 |
| 20260902162021 | 21 | 227 | 3.2 | 8.0 | 0.00 | 0.00 | 0.00 | 70 | 1016.8 |
| 20260902161522 | 21 | 227 | 3.2 | 8.0 | 0.00 | 0.00 | 0.00 | 72 | 1016.6 |
| 20260902160517 | 20 | 227 | 3.2 | 8.0 | 0.00 | 0.00 | 0.00 | 75 | 1016.6 |
| 20260902160252 | 20 | 226 | 4.8 | 8.0 | 0.00 | 0.00 | 0.00 | 76 | 1016.8 |
| 20260902155749 | 20 | 226 | 3.2 | 8.0 | 0.00 | 0.00 | 0.00 | 77 | 1016.8 |
| 20260902155018 | 20 | 226 | 3.2 | 8.0 | 0.00 | 0.00 | 0.00 | 77 | 1016.8 |
| 20260902154512 | 20 | 227 | 3.2 | 8.0 | 0.00 | 0.00 | 0.00 | 78 | 1016.8 |
| 20260902154014 | 19 | 226 | 3.2 | 8.0 | 0.00 | 0.00 | 0.00 | 78 | 1016.8 |
| 20260902153513 | 19 | 226 | 3.2 | 8.0 | 0.00 | 0.00 | 0.00 | 79 | 1016.8 |
| 20260902153244 | 19 | 226 | 3.2 | 6.4 | 0.00 | 0.00 | 0.00 | 79 | 1016.8 |
| 20260902152512 | 19 | 226 | 3.2 | 8.0 | 0.00 | 0.00 | 0.00 | 78 | 1016.6 |
| 20260902151514 | 19 | 226 | 1.6 | 8.0 | 0.00 | 0.00 | 0.00 | 79 | 1016.5 |
| 20260902151009 | 18 | 226 | 3.2 | 8.0 | 0.00 | 0.00 | 0.00 | 79 | 1016.5 |
| 20260902150010 | 18 | 229 | 3.2 | 8.0 | 0.00 | 0.00 | 0.00 | 79 | 1016.5 |
| 20260902145509 | 18 | 229 | 3.2 | 8.0 | 0.00 | 0.00 | 0.00 | 79 | 1016.6 |
| 20260902145005 | 18 | 229 | 1.6 | 6.4 | 0.00 | 0.00 | 0.00 | 79 | 1016.6 |
| 20260902144737 | 18 | 229 | 1.6 | 8.0 | 0.00 | 0.00 | 0.00 | 79 | 1016.6 |
| 20260902144006 | 18 | 229 | 1.6 | 8.0 | 0.00 | 0.00 | 0.00 | 79 | 1016.4 |
| 20260902143736 | 18 | 229 | 0.0 | 8.0 | 0.00 | 0.00 | 0.00 | 79 | 1016.5 |
| 20260902143001 | 18 | 236 | 0.0 | 6.4 | 0.00 | 0.00 | 0.00 | 79 | 1016.4 |
| 20260902142732 | 18 | 236 | 0.0 | 6.4 | 0.00 | 0.00 | 0.00 | 79 | 1016.4 |
| 20260902141501 | 18 | 236 | 0.0 | 4.8 | 0.00 | 0.00 | 0.00 | 81 | 1016.3 |
| 20260902141228 | 18 | 236 | 0.0 | 3.2 | 0.00 | 0.00 | 0.00 | 81 | 1016.2 |
| 20260902140559 | 17 | 236 | 0.0 | 3.2 | 0.00 | 0.00 | 0.00 | 81 | 1016.2 |
| 20260902135504 | 17 | 236 | 0.0 | 0.0 | 0.00 | 0.00 | 0.00 | 81 | 1016.2 |
| 20260902134454 | 17 | 236 | 0.0 | 0.0 | 0.00 | 0.00 | 0.00 | 82 | 1016.1 |
| 20260902133954 | 17 | 236 | 0.0 | 0.0 | 0.00 | 0.00 | 0.00 | 82 | 1016.0 |
| 20260902133454 | 17 | 236 | 0.0 | 0.0 | 0.00 | 0.00 | 0.00 | 81 | 1016.1 |
| 20260902132950 | 17 | 236 | 0.0 | 0.0 | 0.00 | 0.00 | 0.00 | 82 | 1016.1 |
| 20260902132720 | 17 | 236 | 0.0 | 0.0 | 0.00 | 0.00 | 0.00 | 81 | 1016.1 |
| 20260902131949 | 17 | 236 | 0.0 | 0.0 | 0.00 | 0.00 | 0.00 | 82 | 1016.0 |
| 20260902131449 | 17 | 236 | 0.0 | 0.0 | 0.00 | 0.00 | 0.00 | 82 | 1016.0 |
| 20260902130945 | 17 | 236 | 0.0 | 0.0 | 0.00 | 0.00 | 0.00 | 82 | 1016.0 |
| 20260902130445 | 17 | 236 | 0.0 | 0.0 | 0.00 | 0.00 | 0.00 | 82 | 1016.0 |
| 20260902125946 | 17 | 236 | 0.0 | 0.0 | 0.00 | 0.00 | 0.00 | 82 | 1016.1 |
| 20260902125445 | 17 | 236 | 0.0 | 0.0 | 0.00 | 0.00 | 0.00 | 82 | 1016.1 |
| 20260902124941 | 17 | 236 | 0.0 | 0.0 | 0.00 | 0.00 | 0.00 | 82 | 1016.2 |
| 20260902124441 | 17 | 236 | 0.0 | 0.0 | 0.00 | 0.00 | 0.00 | 82 | 1016.2 |
| 20260902123941 | 17 | 236 | 0.0 | 0.0 | 0.00 | 0.00 | 0.00 | 82 | 1016.2 |
| 20260902123441 | 17 | 236 | 0.0 | 0.0 | 0.00 | 0.00 | 0.00 | 82 | 1016.2 |
| 20260902122936 | 17 | 236 | 0.0 | 0.0 | 0.00 | 0.00 | 0.00 | 82 | 1016.2 |
| 20260902122437 | 17 | 236 | 0.0 | 1.6 | 0.00 | 0.00 | 0.00 | 82 | 1016.2 |
| 20260902121937 | 17 | 236 | 0.0 | 4.8 | 0.00 | 0.00 | 0.00 | 82 | 1016.1 |
| 20260902121437 | 17 | 236 | 0.0 | 4.8 | 0.00 | 0.00 | 0.00 | 82 | 1016.2 |
| 20260902120933 | 17 | 236 | 0.0 | 1.6 | 0.00 | 0.00 | 0.00 | 82 | 1016.1 |
| 20260902120433 | 17 | 236 | 0.0 | 4.8 | 0.00 | 0.00 | 0.00 | 82 | 1016.1 |
| 20260902115933 | 17 | 236 | 1.6 | 4.8 | 0.00 | 0.00 | 0.00 | 83 | 1016.2 |
| 20260902115433 | 17 | 236 | 1.6 | 6.4 | 0.00 | 0.00 | 0.00 | 83 | 1016.2 |
| 20260902115200 | 17 | 236 | 1.6 | 6.4 | 0.00 | 0.00 | 0.00 | 83 | 1016.2 |
| 20260902114429 | 17 | 236 | 0.0 | 4.8 | 0.00 | 0.00 | 0.00 | 83 | 1016.2 |
| 20260902113929 | 17 | 236 | 0.0 | 0.0 | 0.00 | 0.00 | 0.00 | 83 | 1016.2 |
| 20260902113442 | 17 | 236 | 0.0 | 0.0 | 0.00 | 0.00 | 0.00 | 83 | 1016.3 |
| 20260902112925 | 17 | 236 | 0.0 | 0.0 | 0.00 | 0.00 | 0.00 | 83 | 1016.2 |
| 20260902112425 | 17 | 236 | 0.0 | 0.0 | 0.00 | 0.00 | 0.00 | 83 | 1016.3 |
| 20260902112209 | 17 | 236 | 0.0 | 0.0 | 0.00 | 0.00 | 0.00 | 83 | 1016.3 |
| 20260902111425 | 17 | 236 | 0.0 | 0.0 | 0.00 | 0.00 | 0.00 | 83 | 1016.3 |
| 20260902110921 | 17 | 236 | 0.0 | 0.0 | 0.00 | 0.00 | 0.00 | 82 | 1016.3 |
| 20260902110421 | 17 | 236 | 0.0 | 0.0 | 0.00 | 0.00 | 0.00 | 83 | 1016.3 |
| 20260902105921 | 17 | 236 | 0.0 | 0.0 | 0.00 | 0.00 | 0.00 | 83 | 1016.4 |
| 20260902105422 | 17 | 236 | 0.0 | 0.0 | 0.00 | 0.00 | 0.00 | 83 | 1016.4 |
| 20260902105146 | 17 | 236 | 0.0 | 0.0 | 0.00 | 0.00 | 0.00 | 83 | 1016.5 |
| 20260902104649 | 17 | 236 | 0.0 | 0.0 | 0.00 | 0.00 | 0.00 | 82 | 1016.6 |
| 20260902103918 | 17 | 236 | 0.0 | 0.0 | 0.00 | 0.00 | 0.00 | 82 | 1016.6 |
| 20260902103417 | 17 | 236 | 0.0 | 0.0 | 0.00 | 0.00 | 0.00 | 83 | 1016.6 |
| 20260902102913 | 17 | 236 | 0.0 | 0.0 | 0.00 | 0.00 | 0.00 | 83 | 1016.6 |
| 20260902102644 | 17 | 236 | 0.0 | 0.0 | 0.00 | 0.00 | 0.00 | 83 | 1016.6 |
| 20260902101413 | 17 | 236 | 0.0 | 0.0 | 0.00 | 0.00 | 0.00 | 82 | 1016.8 |
| 20260902100908 | 17 | 236 | 0.0 | 0.0 | 0.00 | 0.00 | 0.00 | 82 | 1016.8 |
| 20260902100409 | 17 | 236 | 0.0 | 0.0 | 0.00 | 0.00 | 0.00 | 82 | 1016.8 |
| 20260902095909 | 17 | 236 | 0.0 | 0.0 | 0.00 | 0.00 | 0.00 | 82 | 1016.8 |
| 20260902095410 | 17 | 236 | 0.0 | 0.0 | 0.00 | 0.00 | 0.00 | 82 | 1016.6 |
| 20260902094904 | 17 | 236 | 0.0 | 0.0 | 0.00 | 0.00 | 0.00 | 82 | 1016.8 |
| 20260902094405 | 17 | 236 | 0.0 | 0.0 | 0.00 | 0.00 | 0.00 | 81 | 1016.8 |
| 20260902093905 | 17 | 236 | 0.0 | 0.0 | 0.00 | 0.00 | 0.00 | 81 | 1016.8 |
| 20260902093405 | 17 | 236 | 0.0 | 4.8 | 0.00 | 0.00 | 0.00 | 81 | 1016.8 |
| 20260902093132 | 17 | 236 | 0.0 | 4.8 | 0.00 | 0.00 | 0.00 | 82 | 1016.8 |
| 20260902092401 | 17 | 236 | 0.0 | 0.0 | 0.00 | 0.00 | 0.00 | 81 | 1016.8 |
| 20260902091901 | 17 | 236 | 0.0 | 0.0 | 0.00 | 0.00 | 0.00 | 81 | 1016.8 |
| 20260902091401 | 17 | 236 | 0.0 | 0.0 | 0.00 | 0.00 | 0.00 | 81 | 1016.6 |
| 20260902090857 | 17 | 236 | 0.0 | 0.0 | 0.00 | 0.00 | 0.00 | 81 | 1016.6 |
| 20260902090358 | 17 | 236 | 0.0 | 0.0 | 0.00 | 0.00 | 0.00 | 81 | 1016.5 |
| 20260902085857 | 17 | 236 | 0.0 | 0.0 | 0.00 | 0.00 | 0.00 | 81 | 1016.5 |
| 20260902085358 | 17 | 236 | 0.0 | 3.2 | 0.00 | 0.00 | 0.00 | 81 | 1016.6 |
| 20260902085122 | 17 | 236 | 0.0 | 6.4 | 0.00 | 0.00 | 0.00 | 81 | 1016.6 |
| 20260902084353 | 17 | 236 | 1.6 | 6.4 | 0.00 | 0.00 | 0.00 | 80 | 1016.6 |
| 20260902083853 | 17 | 236 | 3.2 | 6.4 | 0.00 | 0.00 | 0.00 | 80 | 1016.8 |
| 20260902083353 | 18 | 236 | 3.2 | 6.4 | 0.00 | 0.00 | 0.00 | 80 | 1016.6 |
| 20260902082848 | 18 | 236 | 1.6 | 4.8 | 0.00 | 0.00 | 0.00 | 80 | 1016.8 |
| 20260902081850 | 18 | 236 | 3.2 | 6.4 | 0.00 | 0.00 | 0.00 | 80 | 1016.8 |
| 20260902081349 | 18 | 236 | 3.2 | 6.4 | 0.00 | 0.00 | 0.00 | 80 | 1016.8 |
| 20260902080845 | 18 | 236 | 1.6 | 6.4 | 0.00 | 0.00 | 0.00 | 79 | 1016.8 |
| 20260902080345 | 18 | 236 | 1.6 | 6.4 | 0.00 | 0.00 | 0.00 | 79 | 1016.8 |
| 20260902075845 | 18 | 236 | 1.6 | 4.8 | 0.00 | 0.00 | 0.00 | 79 | 1016.6 |
| 20260902075616 | 18 | 236 | 3.2 | 8.0 | 0.00 | 0.00 | 0.00 | 79 | 1016.5 |
| 20260902074841 | 18 | 236 | 3.2 | 8.0 | 0.00 | 0.00 | 0.00 | 79 | 1016.5 |
| 20260902074355 | 18 | 236 | 1.6 | 6.4 | 0.00 | 0.00 | 0.00 | 78 | 1016.4 |
| 20260902073842 | 18 | 236 | 1.6 | 4.8 | 0.00 | 0.00 | 0.00 | 78 | 1016.3 |
| 20260902073342 | 18 | 236 | 1.6 | 4.8 | 0.00 | 0.00 | 0.00 | 78 | 1016.3 |
| 20260902072837 | 18 | 236 | 3.2 | 4.8 | 0.00 | 0.00 | 0.00 | 78 | 1016.3 |
| 20260902072337 | 18 | 236 | 3.2 | 4.8 | 0.00 | 0.00 | 0.00 | 77 | 1016.2 |
| 20260902071837 | 18 | 236 | 3.2 | 4.8 | 0.00 | 0.00 | 0.00 | 77 | 1016.2 |
| 20260902071338 | 18 | 236 | 3.2 | 8.0 | 0.00 | 0.00 | 0.00 | 77 | 1016.1 |
| 20260902070834 | 18 | 236 | 3.2 | 8.0 | 0.00 | 0.00 | 0.00 | 76 | 1016.1 |
| 20260902070604 | 18 | 236 | 3.2 | 6.4 | 0.00 | 0.00 | 0.00 | 76 | 1016.0 |
| 20260902065332 | 19 | 236 | 3.2 | 6.4 | 0.00 | 0.00 | 0.00 | 75 | 1016.1 |
| 20260902064830 | 19 | 236 | 4.8 | 8.0 | 0.00 | 0.00 | 0.00 | 75 | 1016.1 |
| 20260902064330 | 19 | 236 | 4.8 | 8.0 | 0.00 | 0.00 | 0.00 | 75 | 1016.0 |
| 20260902063831 | 19 | 236 | 4.8 | 8.0 | 0.00 | 0.00 | 0.00 | 74 | 1016.0 |
| 20260902063329 | 19 | 236 | 4.8 | 8.0 | 0.00 | 0.00 | 0.00 | 74 | 1016.0 |
| 20260902062828 | 19 | 236 | 4.8 | 8.0 | 0.00 | 0.00 | 0.00 | 73 | 1015.9 |